• In Deutschland
  • Länderverzeichnis
  • Für 7 Tage
  • Wassertemperatur
  • Satellitenkarten
  • Wetterkarte
  • Widgets
  • user-avatar
    Anmelden

    Stündliche Wetter São Paulo

    Heute, 20 August, Montag

    Zeit Temperatur Niederschläge Wind Luftdruck Luftfeuchtigkeit
    00:00 +18°C° 0 mm 1 m/S 703 mmHg 78%
    01:00 +18°C° 0 mm 1 m/S 703 mmHg 77%
    02:00 +18°C° 0 mm 1 m/S 703 mmHg 76%
    03:00 +16°C° 0 mm 1 m/S 702 mmHg 73%
    04:00 +16°C° 0 mm 1 m/S 702 mmHg 72%
    05:00 +16°C° 0 mm 1 m/S 702 mmHg 71%
    06:00 +16°C° 0 mm 1 m/S 702 mmHg 69%
    07:00 +19°C° 0 mm 1 m/S 703 mmHg 63%
    08:00 +21°C° 0 mm 1 m/S 704 mmHg 56%
    09:00 +24°C° 0 mm 1 m/S 704 mmHg 49%
    10:00 +25°C° 0 mm 1 m/S 704 mmHg 44%
    11:00 +27°C° 0 mm 1 m/S 705 mmHg 38%
    12:00 +28°C° 0 mm 1 m/S 705 mmHg 33%
    13:00 +28°C° 0 mm 1 m/S 704 mmHg 33%
    14:00 +28°C° 0 mm 1 m/S 704 mmHg 33%
    15:00 +28°C° 0 mm 1 m/S 704 mmHg 33%
    16:00 +26°C° 0 mm 1 m/S 703 mmHg 39%
    17:00 +25°C° 0 mm 1 m/S 703 mmHg 46%
    18:00 +23°C° 0 mm 1 m/S 703 mmHg 53%
    19:00 +22°C° 0 mm 1 m/S 703 mmHg 55%
    20:00 +21°C° 0 mm 1 m/S 703 mmHg 58%
    21:00 +20°C° 0 mm 1 m/S 703 mmHg 61%
    22:00 +20°C° 0 mm 1 m/S 703 mmHg 62%
    23:00 +20°C° 0 mm 1 m/S 703 mmHg 63%

    Morgen, 21 August, Dienstag

    Zeit Temperatur Niederschläge Wind Luftdruck Luftfeuchtigkeit
    00:00 +19°C° 0 mm 1 m/S 703 mmHg 64%
    01:00 +19°C° 0 mm 1 m/S 703 mmHg 64%
    02:00 +18°C° 0 mm 1 m/S 703 mmHg 65%
    03:00 +18°C° 0 mm 1 m/S 702 mmHg 66%
    04:00 +18°C° 0 mm 1 m/S 703 mmHg 67%
    05:00 +16°C° 0 mm 1 m/S 703 mmHg 67%
    06:00 +16°C° 0 mm 1 m/S 703 mmHg 68%
    07:00 +19°C° 0 mm 1 m/S 703 mmHg 62%
    08:00 +21°C° 0 mm 1 m/S 704 mmHg 56%
    09:00 +23°C° 0 mm 1 m/S 704 mmHg 50%
    10:00 +24°C° 0 mm 1 m/S 705 mmHg 46%
    11:00 +26°C° 0 mm 1 m/S 705 mmHg 41%
    12:00 +28°C° 0 mm 1 m/S 705 mmHg 37%
    13:00 +28°C° 0 mm 2 m/S 704 mmHg 39%
    14:00 +28°C° 0 mm 2 m/S 704 mmHg 41%
    15:00 +27°C° 0 mm 2 m/S 703 mmHg 43%
    16:00 +25°C° 0 mm 2 m/S 703 mmHg 53%
    17:00 +23°C° 0 mm 2 m/S 703 mmHg 63%
    18:00 +20°C° 0 mm 2 m/S 702 mmHg 73%
    19:00 +19°C° 0 mm 2 m/S 703 mmHg 77%
    20:00 +19°C° 0 mm 2 m/S 703 mmHg 81%
    21:00 +18°C° 0 mm 2 m/S 703 mmHg 85%
    22:00 +18°C° 0 mm 2 m/S 703 mmHg 86%
    23:00 +17°C° 0 mm 2 m/S 703 mmHg 87%

    übermorgen, 22 August, Mittwoch

    Zeit Temperatur Niederschläge Wind Luftdruck Luftfeuchtigkeit
    00:00 +18°C° 0 mm 1 m/S 703 mmHg 88%
    01:00 +18°C° 0 mm 1 m/S 703 mmHg 88%
    02:00 +18°C° 0 mm 1 m/S 703 mmHg 87%
    03:00 +18°C° 0 mm 1 m/S 702 mmHg 87%
    04:00 +18°C° 0 mm 1 m/S 702 mmHg 87%
    05:00 +17°C° 0 mm 2 m/S 702 mmHg 87%
    06:00 +16°C° 0 mm 2 m/S 702 mmHg 86%
    07:00 +17°C° 0 mm 2 m/S 703 mmHg 82%
    08:00 +18°C° 0 mm 2 m/S 703 mmHg 78%
    09:00 +19°C° 0 mm 2 m/S 704 mmHg 74%
    10:00 +21°C° 0 mm 2 m/S 704 mmHg 66%
    11:00 +24°C° 0 mm 1 m/S 704 mmHg 58%
    12:00 +26°C° 0 mm 1 m/S 704 mmHg 50%
    13:00 +26°C° 0 mm 1 m/S 703 mmHg 48%
    14:00 +27°C° 0 mm 2 m/S 703 mmHg 47%
    15:00 +27°C° 0 mm 2 m/S 702 mmHg 45%
    16:00 +25°C° 0,1 mm 2 m/S 702 mmHg 54%
    17:00 +24°C° 0,1 mm 2 m/S 701 mmHg 63%
    18:00 +21°C° 0,1 mm 2 m/S 701 mmHg 71%
    19:00 +20°C° 0,3 mm 2 m/S 701 mmHg 76%
    20:00 +19°C° 0,3 mm 2 m/S 701 mmHg 81%
    21:00 +18°C° 0,3 mm 2 m/S 701 mmHg 86%
    22:00 +18°C° 0,2 mm 2 m/S 701 mmHg 86%
    23:00 +18°C° 0,2 mm 2 m/S 701 mmHg 86%

    23 August, Donnerstag

    Zeit Temperatur Niederschläge Wind Luftdruck Luftfeuchtigkeit
    00:00 +19°C° 0,2 mm 1 m/S 701 mmHg 87%
    01:00 +18°C° 0,1 mm 1 m/S 701 mmHg 86%
    02:00 +18°C° 0,1 mm 1 m/S 700 mmHg 85%
    03:00 +18°C° 0,1 mm 1 m/S 700 mmHg 84%
    04:00 +18°C° 0,1 mm 1 m/S 700 mmHg 82%
    05:00 +18°C° 0,1 mm 1 m/S 700 mmHg 80%
    06:00 +18°C° 0,1 mm 1 m/S 700 mmHg 78%
    07:00 +19°C° 0 mm 1 m/S 701 mmHg 72%
    08:00 +21°C° 0 mm 1 m/S 701 mmHg 66%
    09:00 +22°C° 0 mm 1 m/S 702 mmHg 60%
    10:00 +24°C° 0 mm 1 m/S 702 mmHg 53%
    11:00 +27°C° 0 mm 2 m/S 702 mmHg 46%
    12:00 +29°C° 0 mm 2 m/S 702 mmHg 39%
    13:00 +28°C° 0 mm 2 m/S 702 mmHg 40%
    14:00 +28°C° 0 mm 2 m/S 701 mmHg 42%
    15:00 +28°C° 0 mm 2 m/S 700 mmHg 43%
    16:00 +26°C° 0 mm 2 m/S 700 mmHg 48%
    17:00 +25°C° 0 mm 1 m/S 700 mmHg 53%
    18:00 +23°C° 0 mm 1 m/S 700 mmHg 59%
    19:00 +23°C° 0 mm 1 m/S 700 mmHg 61%
    20:00 +22°C° 0 mm 1 m/S 701 mmHg 64%
    21:00 +21°C° 0 mm 1 m/S 701 mmHg 67%
    22:00 +21°C° 0 mm 1 m/S 701 mmHg 68%
    23:00 +21°C° 0 mm 1 m/S 701 mmHg 69%

    24 August, Freitag

    Zeit Temperatur Niederschläge Wind Luftdruck Luftfeuchtigkeit
    00:00 +20°C° 0 mm 1 m/S 701 mmHg 70%
    01:00 +20°C° 0 mm 1 m/S 700 mmHg 70%
    02:00 +20°C° 0 mm 1 m/S 700 mmHg 70%
    03:00 +20°C° 0 mm 1 m/S 700 mmHg 70%
    04:00 +19°C° 0 mm 1 m/S 700 mmHg 70%
    05:00 +19°C° 0 mm 1 m/S 700 mmHg 71%
    06:00 +19°C° 0 mm 1 m/S 700 mmHg 71%
    07:00 +21°C° 0 mm 1 m/S 701 mmHg 65%
    08:00 +23°C° 0 mm 1 m/S 701 mmHg 59%
    09:00 +25°C° 0 mm 2 m/S 702 mmHg 53%
    10:00 +27°C° 0 mm 2 m/S 702 mmHg 47%
    11:00 +29°C° 0 mm 2 m/S 701 mmHg 41%
    12:00 +30°C° 0 mm 2 m/S 701 mmHg 36%
    13:00 +30°C° 0 mm 2 m/S 701 mmHg 35%
    14:00 +31°C° 0 mm 2 m/S 700 mmHg 34%
    15:00 +31°C° 0 mm 2 m/S 700 mmHg 33%
    16:00 +29°C° 0 mm 2 m/S 700 mmHg 38%
    17:00 +28°C° 0 mm 2 m/S 700 mmHg 43%
    18:00 +26°C° 0 mm 2 m/S 699 mmHg 48%
    19:00 +25°C° 0 mm 2 m/S 699 mmHg 51%
    20:00 +25°C° 0 mm 3 m/S 699 mmHg 53%
    21:00 +23°C° 0 mm 4 m/S 699 mmHg 56%
    22:00 +23°C° 0 mm 4 m/S 699 mmHg 56%
    23:00 +23°C° 0 mm 4 m/S 698 mmHg 56%

    25 August, Samstag

    Zeit Temperatur Niederschläge Wind Luftdruck Luftfeuchtigkeit
    00:00 +23°C° 0 mm 4 m/S 698 mmHg 56%
    01:00 +23°C° 0 mm 4 m/S 698 mmHg 55%
    02:00 +23°C° 0 mm 4 m/S 698 mmHg 54%
    03:00 +23°C° 0 mm 4 m/S 697 mmHg 53%
    04:00 +22°C° 0 mm 4 m/S 698 mmHg 54%
    05:00 +22°C° 0 mm 4 m/S 698 mmHg 55%
    06:00 +22°C° 0 mm 4 m/S 698 mmHg 56%
    07:00 +22°C° 0,1 mm 4 m/S 699 mmHg 58%
    08:00 +22°C° 0,1 mm 5 m/S 699 mmHg 60%
    09:00 +22°C° 0,1 mm 5 m/S 700 mmHg 62%
    10:00 +23°C° 0,3 mm 6 m/S 700 mmHg 58%
    11:00 +24°C° 0,3 mm 6 m/S 700 mmHg 54%
    12:00 +26°C° 0,3 mm 7 m/S 700 mmHg 50%
    13:00 +26°C° 0 mm 6 m/S 700 mmHg 50%
    14:00 +26°C° 0 mm 6 m/S 699 mmHg 50%
    15:00 +27°C° 0 mm 5 m/S 699 mmHg 50%
    16:00 +25°C° 0,8 mm 4 m/S 699 mmHg 58%
    17:00 +22°C° 0,8 mm 3 m/S 700 mmHg 66%
    18:00 +20°C° 0,8 mm 2 m/S 700 mmHg 74%
    19:00 +19°C° 0,2 mm 2 m/S 701 mmHg 76%
    20:00 +18°C° 0,2 mm 2 m/S 701 mmHg 79%
    21:00 +17°C° 0,2 mm 2 m/S 701 mmHg 81%
    22:00 +17°C° 0,1 mm 2 m/S 701 mmHg 82%
    23:00 +16°C° 0,1 mm 2 m/S 701 mmHg 82%
    Mehr zeigen